User: anonymous   Login
Location: Unspecified
(0.0000°N, 0.0000°E)
Time: 15:40:27
(UTC+00:00)
Language:

NOSS 8 (F) - Orbit

View from above orbital plane
View from above orbital plane
View from above satellite
View from above satellite

Ground track
Ground track

The orbit data is extracted from the following two-line orbital elements,

1 18010U 87043F   18315.77071994 0.00000650  00000-0  73724-4 0    05
2 18010  63.3086 221.5465 0901190  54.0393 305.9606 13.45292513    01
Epoch (UTC): 11 November 2018 18:29:50
Eccentricity: 0.0901190
inclination: 63.3086°
perigee height: 416 km
apogee height: 1762 km
right ascension of ascending node: 221.5465°
argument of perigee: 54.0393°
revolutions per day: 13.45292513
mean anomaly at epoch: 305.9606°
orbit number at epoch: 0

The dashed part of the orbit path shows where the satellite is in the earth's shadow,  

DLR